Regional Weather Roundup
Issued by NWS

Home | Current Version | Previous Version | Graphics & Text | Print | Product List | Glossary On
Versions: 1 2 3 4 5 6 7 8 9 10 11 12 13 14 15 16 17 18 19 20 21 22 23 24 25 26 27 28 29 30 31 32 33 34 35 36 37 38 39 40 41 42 43 44 45 46 47 48 49 50
000
ASUS43 KFSD 181402
RWRSD

WEATHER ROUNDUP FOR SOUTH DAKOTA
NATIONAL WEATHER SERVICE SIOUX FALLS SD
900 AM CDT THU SEP 18 2014

NOTE: "FAIR" INDICATES FEW OR NO CLOUDS BELOW 12,000 FEET WITH NO
SIGNIFICANT WEATHER AND/OR OBSTRUCTIONS TO VISIBILITY.


SDZ001>005-009-010-012>017-181500-
NORTHWEST AND NORTH CENTRAL SOUTH DAKOTA

CITY           SKY/WX    TMP DP  RH WIND       PRES   REMARKS
FAITH            N/A     56  52  86 SE9       29.86S
MOBRIDGE       SUNNY     58  53  84 SE9       29.86F
$$

SDZ012>016-024>037-041>051-057-063-072>074-181500-
SOUTHWEST AND SOUTH CENTRAL SOUTH DAKOTA

CITY           SKY/WX    TMP DP  RH WIND       PRES   REMARKS
RAPID CTY ARPT SUNNY     55  52  89 SE3       29.86F
PIERRE         PTSUNNY   61  56  83 SE10      29.88F
CUSTER         SUNNY     63  44  50 NW5       30.00S
ELLSWORTH AFB  SUNNY     56  53  90 VRB2      29.86S
PHILIP         MOSUNNY   57  54  89 E5        29.86S
PINE RIDGE     SUNNY     64  61  90 S14       29.91S
WINNER         FAIR      63  60  90 S7        29.92S
$$

SDZ004>011-016>023-039-040-181500-
NORTHEAST SOUTH DAKOTA

CITY           SKY/WX    TMP DP  RH WIND       PRES   REMARKS
ABERDEEN       SUNNY     52  49  89 MISG      29.96S
WATERTOWN      SUNNY     58  53  84 SE9       29.99S
SISSETON         N/A     51  51 100 S14       30.00S
$$

SDZ017-020-022-023-036>040-048>070-181500-
SOUTHEAST SOUTH DAKOTA

CITY           SKY/WX    TMP DP  RH WIND       PRES   REMARKS
SIOUX FALLS    MOSUNNY   62  57  83 S12       30.01S
HURON          PTSUNNY   56  54  93 SE6       29.96R
CHAMBERLAIN    CLOUDY    58  55  91 SE8       29.95R
MITCHELL       PTSUNNY   59  58  96 S9        29.98R
YANKTON        PTSUNNY   61  57  88 SE5       30.00R
$$

ABBREVIATIONS USED IN REMARKS
   TC - TEMPERATURE IN CELSIUS
  WCI - WIND CHILL INDEX
   HX - HEAT INDEX
  VSB - VISIBILITY



USA.gov is the U.S. government's official web portal to all federal, state and local government web resources and services.